Home   Weather   Tel Aviv   Past weeks
Flag for Israel

Past Weather in Tel Aviv, Israel — Yesterday and Last 2 Weeks

Now
106 °F

Sunny.


Feels Like: 100 °F
Forecast: 79 / 70 °F
Wind: 18 mph from West

Location: Ben Gurion International Airport

Current Time: May 24, 2019 at 2:35:47 pm

Latest Report: May 24, 2019 at 1:50 pm


Visibility: 10 mi

Pressure: 29.74 "Hg

Humidity: 9%

Dew Point: 36 °F

Location of Tel AvivLocation

Past Weather in Tel Aviv — Graph

°F

Tel Aviv Temperature Yesterday

Maximum temperature yesterday: 111 °F (at 12:50 pm)
Minimum temperature yesterday: 70 °F (at 4:20 am)
Average temperature yesterday: 92 °F

High & Low Weather Summary for the Past Weeks

 TemperatureHumidityPressure
High111 °F (May 23, 12:50 pm)100% (May 21, 6:20 am)30.01 "Hg (May 21, 6:20 am)
Low55 °F (May 11, 5:50 am)7% (May 23, 11:50 am)29.65 "Hg (May 17, 3:20 am)
Average76 °F49%29.87 "Hg
* Reported May 9 1:20 pm — May 24 1:20 pm, Tel Aviv. Weather by CustomWeather, © 2019

Note: Actual official high and low records may vary slightly from our data, if they occured in-between our weather recording intervals... More about our weather records

Advertising

Tel Aviv Weather History for the Previous 24 Hours

Scroll right to see more
 ConditionsComfort  
Time TempWeatherWind HumidityBarometerVisibility
1:20 pm
Fri, May 24
106 °FSunny.22 mph9%29.71 "Hg10 mi
12:50 pm108 °FSunny.18 mph9%29.71 "Hg10 mi
12:20 pm108 °FSunny.15 mph10%29.74 "Hg10 mi
11:50 am108 °FSunny.13 mph10%29.74 "Hg10 mi
11:20 am106 °FSunny.12 mph12%29.74 "Hg10 mi
10:50 am102 °FSunny.2 mph14%29.74 "Hg10 mi
10:20 am99 °FSunny.1 mph18%29.74 "Hg10 mi
9:50 am95 °FSunny.2 mph19%29.77 "Hg10 mi
8:50 am90 °FSunny.1 mph24%29.77 "Hg10 mi
8:20 am88 °FSunny.3 mph25%29.77 "Hg10 mi
7:50 am86 °FClear.6 mph27%29.77 "Hg6 mi
7:20 am81 °FClear.6 mph32%29.74 "Hg6 mi
6:50 am79 °FClear.3 mph37%29.74 "Hg5 mi
6:20 am77 °FClear.2 mph39%29.74 "Hg6 mi
5:50 am77 °FPassing clouds.6 mph39%29.74 "HgN/A
5:20 am79 °FClear.2 mph32%29.71 "Hg10 mi
4:50 am79 °FClear.5 mph32%29.71 "Hg10 mi
4:20 am81 °FClear.3 mph28%29.71 "Hg10 mi
3:50 am82 °FClear.8 mph25%29.71 "Hg10 mi
3:20 am82 °FClear.5 mph26%29.74 "Hg10 mi
2:50 am84 °FClear.3 mph31%29.74 "Hg10 mi
2:20 am82 °FClear.2 mph28%29.74 "Hg10 mi
1:50 am81 °FClear.3 mph34%29.74 "Hg10 mi
1:20 am82 °FClear.2 mph30%29.74 "Hg10 mi
12:50 am84 °FClear.2 mph27%29.77 "Hg10 mi
12:20 am86 °FClear.5 mph24%29.77 "Hg10 mi
11:50 pm
Thu, May 23
88 °FClear.6 mph22%29.77 "Hg10 mi
11:20 pm90 °FClear.5 mph21%29.77 "Hg10 mi
10:50 pm88 °FClear.6 mph25%29.77 "Hg10 mi
10:20 pm91 °FClear.6 mph21%29.77 "Hg10 mi
9:50 pm90 °FClear.2 mph21%29.77 "Hg10 mi
9:20 pm93 °FClear.2 mph19%29.77 "Hg10 mi
8:50 pm93 °FClear.2 mph19%29.77 "Hg10 mi
8:20 pm95 °FClear.5 mph18%29.77 "Hg10 mi
7:50 pm97 °FClear.3 mph14%29.77 "Hg10 mi
7:20 pm99 °FSunny.7 mph14%29.77 "Hg10 mi
6:50 pm99 °FSunny.9 mph13%29.77 "Hg10 mi
6:20 pm100 °FSunny.7 mph12%29.77 "Hg10 mi
5:50 pm100 °FSunny.8 mph12%29.77 "Hg10 mi
5:20 pm102 °FSunny.9 mph12%29.77 "Hg10 mi
4:50 pm102 °FSunny.10 mph11%29.77 "Hg10 mi
4:20 pm104 °FSunny.13 mph12%29.77 "Hg10 mi
3:50 pm104 °FSunny.12 mph12%29.80 "Hg10 mi
2:50 pm108 °FPassing clouds.7 mph12%29.80 "HgN/A
2:20 pm109 °FPassing clouds.10 mph10%29.80 "HgN/A
Weather by CustomWeather, © 2019

See weather overview